Home   Weather   Sherbrooke   Past weeks
Flag for Canada

Past Weather in Sherbrooke, Quebec, Canada — Yesterday and Last 2 Weeks

Now
39 °F

Light rain. Fog.


Feels Like: 32 °F
Forecast: 44 / 39 °F
Wind: 10 mph from Northwest

Location: Sherbrooke

Current Time: Oct 18, 2019 at 3:10:59 am

Latest Report: Oct 18, 2019 at 2:29 am


Visibility: 6 mi

Pressure: 29.44 "Hg

Humidity: 100%

Dew Point: 39 °F

Location of SherbrookeLocation

Past Weather in Sherbrooke — Graph

°F

Sherbrooke Temperature Yesterday

Maximum temperature yesterday: 48 °F (at 4:06 pm)
Minimum temperature yesterday: 41 °F (at 11:03 pm)
Average temperature yesterday: 44 °F

High & Low Weather Summary for the Past Weeks

 TemperatureHumidityPressure
High68 °F (Oct 11, 2:00 pm)100% (Oct 3, 4:00 am)30.49 "Hg (Oct 3, 4:00 am)
Low27 °F (Oct 5, 6:00 am)21% (Oct 11, 2:00 pm)29.01 "Hg (Oct 17, 2:00 pm)
Average46 °F82%30.08 "Hg
* Reported Oct 3 1:00 am — Oct 18 1:33 am, Sherbrooke. Weather by CustomWeather, © 2019

Note: Actual official high and low records may vary slightly from our data, if they occured in-between our weather recording intervals... More about our weather records

Advertising

Sherbrooke Weather History for the Previous 24 Hours

Scroll right to see more
 ConditionsComfort  
Time TempWeatherWind HumidityBarometerVisibility
1:33 am
Fri, Oct 18
39 °FLight rain. Mostly cloudy.13 mph100%29.42 "Hg7 mi
1:00 am41 °FLight rain. Mostly cloudy.12 mph93%29.40 "Hg9 mi
12:59 am41 °FLight rain. Overcast.12 mph93%29.40 "Hg9 mi
12:23 am41 °FLight rain. Mostly cloudy.13 mph93%29.39 "Hg9 mi
12:00 am41 °FMostly cloudy.9 mph93%29.38 "Hg9 mi
11:07 pm
Thu, Oct 17
41 °FLight rain. Low clouds.10 mph100%29.35 "Hg9 mi
11:03 pm41 °FLight rain. Overcast.12 mph100%29.35 "Hg9 mi
10:34 pm43 °FLight rain. Fog.12 mph93%29.33 "Hg6 mi
10:21 pm43 °FLight rain. Fog.10 mph93%29.32 "Hg3 mi
10:13 pm43 °FLight rain. Fog.12 mph93%29.32 "Hg5 mi
9:50 pm43 °FLight rain. Fog.9 mph93%29.30 "Hg5 mi
9:19 pm43 °FOvercast.8 mph93%29.28 "Hg9 mi
9:00 pm43 °FLight rain. Overcast.7 mph100%29.26 "Hg9 mi
8:00 pm45 °FLight rain. Mostly cloudy.9 mph93%29.23 "Hg9 mi
7:26 pm45 °FLight rain. Overcast.8 mph93%29.20 "Hg7 mi
7:19 pm45 °FLight rain. Fog.9 mph93%29.19 "Hg4 mi
7:00 pm45 °FLight rain. Low clouds.8 mph93%29.18 "Hg9 mi
6:42 pm45 °FRain. Fog.9 mph100%29.17 "Hg6 mi
6:31 pm46 °FLight rain. Fog.10 mph93%29.15 "Hg5 mi
6:00 pm46 °FLight rain. Overcast.7 mph100%29.12 "Hg9 mi
5:12 pm48 °FLight rain. Fog.9 mph94%29.08 "Hg6 mi
4:06 pm48 °FMostly cloudy.9 mph87%29.05 "Hg9 mi
3:35 pm46 °FFog.12 mph93%29.03 "Hg6 mi
3:19 pm46 °FFog.15 mph93%29.02 "Hg5 mi
2:36 pm46 °FFog.16 mph87%29.02 "Hg6 mi
2:00 pm45 °FOvercast.15 mph93%29.01 "Hg8 mi
1:00 pm45 °FOvercast.17 mph87%29.01 "Hg9 mi
12:04 pm45 °FOvercast.16 mph87%29.01 "Hg9 mi
10:00 am43 °FMore clouds than sun.15 mph93%29.03 "Hg9 mi
9:00 am45 °FLight rain. Mostly cloudy.16 mph93%29.08 "Hg9 mi
8:00 am43 °FRain. Mostly cloudy.14 mph93%29.08 "Hg8 mi
7:07 am43 °FLight rain. Mostly cloudy.14 mph93%29.13 "Hg9 mi
6:32 am43 °FLight rain. Passing clouds.15 mph100%29.16 "Hg9 mi
6:15 am43 °FLight rain. Passing clouds.17 mph100%29.18 "Hg9 mi
5:42 am45 °FLight rain. Passing clouds.13 mph93%29.24 "Hg9 mi
5:05 am45 °FLight rain. Partly cloudy.13 mph93%29.28 "Hg9 mi
4:00 am45 °FLight rain. Passing clouds.14 mph93%29.35 "Hg9 mi
3:00 am45 °FLight rain. Passing clouds.13 mph93%29.42 "Hg9 mi
Weather by CustomWeather, © 2019

See weather overview